This is the latest recevied weather packets stored in our database for station/object DG1ROH. If no packets are shown the sender has not sent any weather packets the latest 10 day(s).
| Time | Temp. | Humidity | Pressure | Rain* | Wind** | Luminosity | Snow |
|---|---|---|---|---|---|---|---|
| 1777482269 | 12.78° C | 39% | 1029 hPa | 0 mm | - | 26 W/m² | - |
| 1777482151 | 12.78° C | 38% | 1029 hPa | 0 mm | - | 26 W/m² | - |
| 1777482030 | 12.78° C | 40% | 1029 hPa | 0 mm | - | 26 W/m² | - |
| 1777481909 | 12.78° C | 39% | 1028.9 hPa | 0 mm | - | 28 W/m² | - |
| 1777481788 | 12.78° C | 38% | 1028.9 hPa | 0 mm | - | 28 W/m² | - |
| 1777481666 | 12.78° C | 40% | 1028.9 hPa | 0 mm | - | 28 W/m² | - |
| 1777481545 | 12.78° C | 39% | 1028.9 hPa | 0 mm | - | 30 W/m² | - |
| 1777481423 | 12.78° C | 38% | 1028.9 hPa | 0 mm | - | 30 W/m² | - |
| 1777481304 | 12.78° C | 37% | 1028.9 hPa | 0 mm | - | 40 W/m² | - |
| 1777481184 | 13.33° C | 39% | 1028.9 hPa | 0 mm | - | 35 W/m² | - |
| 1777481061 | 13.33° C | 38% | 1029 hPa | 0 mm | - | 46 W/m² | - |
| 1777480944 | 13.33° C | 39% | 1029 hPa | 0 mm | - | 53 W/m² | - |
| 1777480819 | 13.33° C | 37% | 1028.9 hPa | 0 mm | - | 33 W/m² | - |
| 1777480699 | 13.33° C | 37% | 1028.9 hPa | 0 mm | - | 47 W/m² | - |
| 1777480579 | 13.33° C | 38% | 1028.9 hPa | 0 mm | - | 39 W/m² | - |
| 1777480461 | 13.33° C | 38% | 1028.9 hPa | 0 mm | - | 49 W/m² | - |
| 1777480340 | 13.33° C | 36% | 1028.8 hPa | 0 mm | - | 62 W/m² | - |
| 1777480219 | 13.33° C | 37% | 1028.9 hPa | 0 mm | - | 72 W/m² | - |
| 1777480100 | 13.33° C | 37% | 1028.9 hPa | 0 mm | - | 111 W/m² | - |
| 1777479980 | 13.33° C | 36% | 1028.9 hPa | 0 mm | - | 153 W/m² | - |
| 1777479858 | 13.33° C | 38% | 1028.9 hPa | 0 mm | - | 146 W/m² | - |
| 1777479738 | 13.33° C | 36% | 1028.9 hPa | 0 mm | - | 69 W/m² | - |
| 1777479617 | 13.89° C | 36% | 1028.9 hPa | 0 mm | - | 69 W/m² | - |
| 1777479498 | 13.89° C | 36% | 1029 hPa | 0 mm | - | 63 W/m² | - |
| 1777479378 | 13.89° C | 39% | 1028.9 hPa | 0 mm | - | 60 W/m² | - |
* Rain latest hour (hover to see other rain measurements)
** Current wind speed in m/s (hover to see current wind gust speed)